CFG2UP EDDF-EGKK

Flight info

Callsign CFG2UP
Flight time 1h 8m
Altitude 36000
Route OBOKA3M/25C OBOKA Z29 TORNU DCT BREDA DCT VICOT DCT GALSO Q63 ARREK Y4 TEBRA DCT ABTUM DCT ARNUN DCT LARCK
Aircraft E190/M-SDGHIJ1RWY/LB1

Departure

Time 2026-05-04 10:51
Airport Frankfurt Main Airport (EDDF)

Arrival

Time 2026-05-04 12:00
Airport London Gatwick Airport (EGKK)
Time Latitude Longitude Altitude Speed Heading
2026-05-04 10:26 50.04891 8.59585 368 ft 0 kts 297°
2026-05-04 10:40 50.04888 8.59593 368 ft 4 kts 297°
2026-05-04 10:41 50.04878 8.59624 369 ft 2 kts 297°
2026-05-04 10:41 50.04869 8.59660 369 ft 4 kts 269°
2026-05-04 10:41 50.04871 8.59686 369 ft 1 kts 249°
2026-05-04 10:41 50.04865 8.59659 369 ft 4 kts 249°
2026-05-04 10:42 50.04862 8.59648 369 ft 3 kts 249°
2026-05-04 10:44 50.04862 8.59647 369 ft 1 kts 249°
2026-05-04 10:45 50.04857 8.59627 369 ft 3 kts 249°
2026-05-04 10:45 50.04846 8.59580 369 ft 6 kts 253°
2026-05-04 10:45 50.04846 8.59502 368 ft 9 kts 277°
2026-05-04 10:45 50.04865 8.59400 370 ft 11 kts 289°
2026-05-04 10:46 50.04865 8.59337 367 ft 1 kts 250°
2026-05-04 10:46 50.04856 8.59306 369 ft 6 kts 245°
2026-05-04 10:46 50.04835 8.59220 369 ft 11 kts 252°
2026-05-04 10:46 50.04801 8.59088 371 ft 15 kts 249°
2026-05-04 10:47 50.04762 8.58929 368 ft 17 kts 249°
2026-05-04 10:47 50.04735 8.58820 369 ft 0 kts 249°
2026-05-04 10:47 50.04734 8.58818 369 ft 1 kts 249°
2026-05-04 10:49 50.04371 8.58107 368 ft 84 kts 251°
2026-05-04 10:49 50.04080 8.56883 366 ft 155 kts 250°
2026-05-04 10:50 50.03667 8.55125 844 ft 185 kts 250°
2026-05-04 10:51 49.96346 8.47170 7331 ft 211 kts 197°
2026-05-04 10:52 49.94896 8.46587 7948 ft 226 kts 198°
2026-05-04 10:52 49.93373 8.45892 8556 ft 240 kts 198°
2026-05-04 10:52 49.91810 8.44865 9235 ft 249 kts 216°
2026-05-04 10:54 49.89755 8.25253 13997 ft 337 kts 296°
2026-05-04 10:54 49.91051 8.22219 15035 ft 338 kts 303°
2026-05-04 10:56 50.02594 8.04552 20751 ft 367 kts 315°
2026-05-04 10:56 50.04542 8.01947 21436 ft 371 kts 315°
2026-05-04 10:56 50.06509 7.99313 22099 ft 375 kts 315°
2026-05-04 10:57 50.08504 7.96637 22747 ft 380 kts 315°
2026-05-04 10:57 50.10514 7.93937 23401 ft 383 kts 314°
2026-05-04 10:57 50.12545 7.91208 23986 ft 387 kts 314°
2026-05-04 10:57 50.14585 7.88465 24584 ft 390 kts 314°
2026-05-04 10:58 50.16639 7.85701 25243 ft 390 kts 314°
2026-05-04 10:58 50.18702 7.82922 25812 ft 394 kts 314°
2026-05-04 10:58 50.20776 7.80128 26371 ft 397 kts 314°
2026-05-04 10:58 50.22875 7.77299 26894 ft 400 kts 313°
2026-05-04 10:59 50.25002 7.74500 27401 ft 406 kts 318°
2026-05-04 10:59 50.27499 7.72297 27862 ft 417 kts 329°
2026-05-04 10:59 50.30164 7.70455 28370 ft 421 kts 331°
2026-05-04 10:59 50.32868 7.68660 28835 ft 424 kts 331°
2026-05-04 11:00 50.35581 7.66848 29272 ft 427 kts 331°
2026-05-04 11:01 50.54895 7.53569 31953 ft 438 kts 329°
2026-05-04 11:02 50.57539 7.51232 32211 ft 435 kts 322°
2026-05-04 11:02 50.60082 7.48661 32602 ft 432 kts 321°
2026-05-04 11:05 50.85273 7.00537 35966 ft 427 kts 291°
2026-05-04 11:06 50.87998 6.92045 35950 ft 437 kts 292°
2026-05-04 11:06 50.89348 6.87886 35957 ft 415 kts 291°
2026-05-04 11:06 50.90639 6.83893 35978 ft 412 kts 291°
2026-05-04 11:08 51.00044 6.54401 35978 ft 434 kts 291°
2026-05-04 11:10 51.09398 6.24734 35987 ft 435 kts 291°
2026-05-04 11:12 51.16656 5.93660 35984 ft 426 kts 279°
2026-05-04 11:12 51.17385 5.89142 35985 ft 426 kts 279°
2026-05-04 11:12 51.19558 5.80236 36023 ft 437 kts 295°
2026-05-04 11:13 51.22699 5.72108 35976 ft 437 kts 296°
2026-05-04 11:13 51.25934 5.63869 35989 ft 439 kts 296°
2026-05-04 11:14 51.29168 5.55579 35956 ft 439 kts 296°
2026-05-04 11:16 51.42010 5.22358 36041 ft 441 kts 296°
2026-05-04 11:16 51.45190 5.14055 35972 ft 444 kts 296°
2026-05-04 11:17 51.48319 5.05872 35994 ft 438 kts 296°
2026-05-04 11:19 51.55083 4.75382 35962 ft 421 kts 258°
2026-05-04 11:19 51.54655 4.70810 36001 ft 418 kts 258°
2026-05-04 11:19 51.53774 4.61541 36006 ft 419 kts 258°
2026-05-04 11:20 51.52876 4.52265 36001 ft 419 kts 257°
2026-05-04 11:20 51.51971 4.43008 35980 ft 419 kts 257°
2026-05-04 11:22 51.48631 4.05878 35999 ft 429 kts 272°
2026-05-04 11:23 51.49348 4.01200 35998 ft 439 kts 287°
2026-05-04 11:23 51.50560 3.96682 36032 ft 441 kts 289°
2026-05-04 11:25 51.59624 3.65427 36003 ft 443 kts 290°
2026-05-04 11:25 51.62203 3.56430 36004 ft 443 kts 290°
2026-05-04 11:27 51.72957 3.15463 36030 ft 431 kts 267°
2026-05-04 11:28 51.72339 3.05988 36003 ft 428 kts 258°
2026-05-04 11:28 51.71512 2.96521 36002 ft 426 kts 258°
2026-05-04 11:29 51.70679 2.87044 35992 ft 427 kts 258°
2026-05-04 11:29 51.69840 2.77547 36010 ft 429 kts 258°
2026-05-04 11:33 51.63966 2.13219 35976 ft 361 kts 257°
2026-05-04 11:33 51.63598 2.09305 35844 ft 347 kts 257°
2026-05-04 11:33 51.63247 2.05514 35576 ft 337 kts 257°
2026-05-04 11:34 51.62908 2.01827 35219 ft 331 kts 257°
2026-05-04 11:34 51.62570 1.98184 34791 ft 327 kts 257°
2026-05-04 11:34 51.62348 1.95793 34464 ft 326 kts 256°
2026-05-04 11:34 51.62008 1.92174 33919 ft 326 kts 256°
2026-05-04 11:35 51.61666 1.88551 33142 ft 331 kts 257°
2026-05-04 11:35 51.61317 1.84858 32315 ft 336 kts 257°
2026-05-04 11:35 51.60886 1.81133 31397 ft 340 kts 247°
2026-05-04 11:35 51.59679 1.77877 30316 ft 345 kts 224°
2026-05-04 11:36 51.57782 1.75443 29069 ft 355 kts 216°
2026-05-04 11:36 51.55838 1.72998 28704 ft 348 kts 220°
2026-05-04 11:36 51.53998 1.70284 28199 ft 372 kts 224°
2026-05-04 11:36 51.52190 1.67228 27720 ft 380 kts 227°
2026-05-04 11:37 51.50432 1.64050 27158 ft 381 kts 228°
2026-05-04 11:37 51.48902 1.60614 26666 ft 378 kts 242°
2026-05-04 11:37 51.47889 1.56720 26165 ft 377 kts 248°
2026-05-04 11:37 51.46972 1.52793 25655 ft 374 kts 248°
2026-05-04 11:38 51.46074 1.48894 25158 ft 372 kts 249°
2026-05-04 11:38 51.45182 1.45019 24662 ft 369 kts 249°
2026-05-04 11:38 51.44288 1.41171 24174 ft 367 kts 247°
2026-05-04 11:38 51.43026 1.37683 23720 ft 364 kts 231°
2026-05-04 11:39 51.41202 1.34944 23194 ft 363 kts 219°
2026-05-04 11:39 51.39204 1.32508 22730 ft 362 kts 217°
2026-05-04 11:40 51.27178 1.18375 19883 ft 352 kts 216°
2026-05-04 11:41 51.25220 1.16067 19420 ft 351 kts 216°
2026-05-04 11:41 51.23259 1.13755 18951 ft 350 kts 216°
2026-05-04 11:41 51.21306 1.11451 18496 ft 349 kts 216°
2026-05-04 11:41 51.19360 1.09155 18011 ft 347 kts 216°
2026-05-04 11:42 51.17433 1.06880 17582 ft 343 kts 216°
2026-05-04 11:42 51.15620 1.04429 17113 ft 342 kts 229°
2026-05-04 11:42 51.14461 1.01151 16700 ft 342 kts 250°
2026-05-04 11:42 51.13878 0.97477 16308 ft 342 kts 256°
2026-05-04 11:43 51.13375 0.93795 15926 ft 340 kts 256°
2026-05-04 11:43 51.12877 0.90171 15545 ft 339 kts 256°
2026-05-04 11:43 51.12374 0.86518 15324 ft 332 kts 256°
2026-05-04 11:43 51.11870 0.82893 14856 ft 342 kts 256°
2026-05-04 11:44 51.11352 0.79171 13990 ft 346 kts 256°
2026-05-04 11:44 51.10836 0.75492 13514 ft 336 kts 256°
2026-05-04 11:44 51.10331 0.71904 13017 ft 327 kts 256°
2026-05-04 11:44 51.09841 0.68432 12612 ft 317 kts 256°
2026-05-04 11:45 51.09360 0.65068 12220 ft 307 kts 256°
2026-05-04 11:45 51.08896 0.61795 11841 ft 299 kts 256°
2026-05-04 11:45 51.08442 0.58597 11443 ft 293 kts 256°
2026-05-04 11:45 51.08002 0.55471 11077 ft 287 kts 256°
2026-05-04 11:46 51.07563 0.52399 10698 ft 283 kts 256°
2026-05-04 11:46 51.07128 0.49366 10333 ft 281 kts 256°
2026-05-04 11:46 51.06688 0.46328 9981 ft 281 kts 256°
2026-05-04 11:46 51.06253 0.43291 9585 ft 282 kts 256°
2026-05-04 11:47 51.05821 0.40276 9201 ft 280 kts 256°
2026-05-04 11:47 51.05384 0.37245 8793 ft 279 kts 256°
2026-05-04 11:47 51.04951 0.34250 8417 ft 277 kts 256°
2026-05-04 11:47 51.04529 0.31337 8045 ft 276 kts 256°
2026-05-04 11:48 51.04097 0.28375 7677 ft 274 kts 256°
2026-05-04 11:48 51.03663 0.25431 7293 ft 274 kts 256°
2026-05-04 11:48 51.03276 0.22479 6954 ft 271 kts 263°
2026-05-04 11:48 51.03162 0.19557 7020 ft 266 kts 266°
2026-05-04 11:49 51.03069 0.16634 7041 ft 270 kts 266°
2026-05-04 11:49 51.02974 0.13695 6928 ft 261 kts 266°
2026-05-04 11:49 51.02879 0.10879 6918 ft 244 kts 266°
2026-05-04 11:49 51.02795 0.08279 6885 ft 231 kts 266°
2026-05-04 11:50 51.02716 0.05831 6968 ft 222 kts 266°
2026-05-04 11:50 51.02629 0.03318 7046 ft 243 kts 266°
2026-05-04 11:50 51.02530 0.00493 7107 ft 264 kts 266°
2026-05-04 11:50 51.02428 -0.02467 7183 ft 273 kts 266°
2026-05-04 11:51 51.02326 -0.05512 7001 ft 280 kts 266°
2026-05-04 11:51 51.02223 -0.08553 6886 ft 273 kts 266°
2026-05-04 11:51 51.02120 -0.11613 6464 ft 277 kts 266°
2026-05-04 11:51 51.02015 -0.14625 6054 ft 274 kts 266°
2026-05-04 11:52 51.01908 -0.17594 5813 ft 265 kts 266°
2026-05-04 11:52 51.01803 -0.20467 5567 ft 257 kts 266°
2026-05-04 11:52 51.01695 -0.23270 5295 ft 252 kts 266°
2026-05-04 11:52 51.01585 -0.26011 5049 ft 246 kts 266°
2026-05-04 11:53 51.01483 -0.28713 4792 ft 244 kts 266°
2026-05-04 11:53 51.01619 -0.31380 4526 ft 245 kts 285°
2026-05-04 11:53 51.02102 -0.33980 4292 ft 246 kts 286°
2026-05-04 11:53 51.02577 -0.36593 4024 ft 246 kts 286°
2026-05-04 11:55 51.09588 -0.47726 2638 ft 211 kts 13°
2026-05-04 11:55 51.10810 -0.46588 2379 ft 207 kts 55°
2026-05-04 11:56 51.11345 -0.44469 2120 ft 205 kts 81°
2026-05-04 11:56 51.11534 -0.42247 2079 ft 193 kts 78°
2026-05-04 11:56 51.11869 -0.40241 2044 ft 183 kts 74°
2026-05-04 11:56 51.12158 -0.38326 1990 ft 172 kts 79°
2026-05-04 11:57 51.12379 -0.36548 2058 ft 159 kts 78°
2026-05-04 11:57 51.12613 -0.34813 1940 ft 166 kts 78°
2026-05-04 11:57 51.12841 -0.32970 1695 ft 168 kts 79°
2026-05-04 11:57 51.13051 -0.31155 1478 ft 165 kts 80°
2026-05-04 11:58 51.13234 -0.29424 1367 ft 153 kts 81°
2026-05-04 11:58 51.13378 -0.27772 1437 ft 154 kts 83°
2026-05-04 11:58 51.13601 -0.26099 1536 ft 147 kts 69°
2026-05-04 11:58 51.14002 -0.24654 1083 ft 138 kts 68°
2026-05-04 11:59 51.14247 -0.23203 660 ft 133 kts 78°
2026-05-04 11:59 51.14434 -0.21824 379 ft 120 kts 77°
2026-05-04 11:59 51.14601 -0.20607 222 ft 104 kts 77°
2026-05-04 11:59 51.14732 -0.19634 211 ft 76 kts 76°
2026-05-04 12:00 51.14827 -0.18957 212 ft 57 kts 78°
2026-05-04 12:00 51.14957 -0.18481 208 ft 36 kts 51°
2026-05-04 12:00 51.15035 -0.18324 206 ft 12 kts 51°
2026-05-04 12:00 51.15092 -0.18211 202 ft 14 kts 52°
2026-05-04 12:01 51.15128 -0.18081 213 ft 13 kts 80°
2026-05-04 12:01 51.15144 -0.17933 207 ft 14 kts 78°
2026-05-04 12:02 51.15222 -0.17393 206 ft 8 kts 78°
2026-05-04 12:03 51.15270 -0.17339 207 ft 10 kts 358°
2026-05-04 12:03 51.15349 -0.17367 207 ft 13 kts 348°
2026-05-04 12:03 51.15444 -0.17401 204 ft 15 kts 347°
2026-05-04 12:03 51.15508 -0.17423 202 ft 0 kts 347°
2026-05-04 12:05 51.15514 -0.17426 202 ft 3 kts 347°
2026-05-04 12:05 51.15545 -0.17436 207 ft 7 kts 347°
2026-05-04 12:05 51.15597 -0.17455 209 ft 8 kts 347°
2026-05-04 12:06 51.15654 -0.17474 209 ft 0 kts 347°
2026-05-04 12:06 51.15661 -0.17477 206 ft 4 kts 347°
2026-05-04 12:06 51.15700 -0.17491 207 ft 7 kts 347°
2026-05-04 12:06 51.15750 -0.17543 212 ft 10 kts 287°
2026-05-04 12:07 51.15738 -0.17667 206 ft 13 kts 256°
2026-05-04 12:07 51.15717 -0.17820 208 ft 15 kts 259°
2026-05-04 12:07 51.15701 -0.17998 202 ft 17 kts 285°
2026-05-04 12:07 51.15808 -0.18066 205 ft 18 kts 348°
2026-05-04 12:08 51.15938 -0.18112 202 ft 20 kts 347°
2026-05-04 12:08 51.16082 -0.18162 205 ft 22 kts 348°
2026-05-04 12:08 51.16221 -0.18211 206 ft 14 kts 347°
2026-05-04 12:08 51.16249 -0.18215 202 ft 2 kts 14°
2026-05-04 12:09 51.16261 -0.18188 215 ft 4 kts 60°
2026-05-04 12:09 51.16270 -0.18138 211 ft 4 kts 76°
2026-05-04 12:09 51.16275 -0.18101 205 ft 4 kts 78°
2026-05-04 12:09 51.16277 -0.18089 205 ft 0 kts 78°